EJU6840 LPMA-LPFR

Flight info

Callsign EJU6840
Flight time N/A
Altitude 38000
Route N0435F380 DEGUN DCT VABEM DCT LAMDI DCT ASMOV
Aircraft A320/M-SDE3FGHIRWY/LB1

Departure

Time N/A
Airport Cristiano Ronaldo International Airport (LPMA)

Arrival

Time 2026-05-05 20:56
Airport Faro - Gago Coutinho International Airport (LPFR)
Time Latitude Longitude Altitude Speed Heading
2026-05-05 20:22 35.69891 -12.93530 38169 ft 510 kts 73°
2026-05-05 20:22 35.71893 -12.85166 38168 ft 509 kts 73°
2026-05-05 20:23 35.73886 -12.76800 38167 ft 509 kts 73°
2026-05-05 20:23 35.75874 -12.68439 38162 ft 509 kts 73°
2026-05-05 20:24 35.77858 -12.60063 38164 ft 510 kts 73°
2026-05-05 20:24 35.79846 -12.51674 38165 ft 510 kts 73°
2026-05-05 20:25 35.81822 -12.43273 38166 ft 511 kts 73°
2026-05-05 20:25 35.83786 -12.34852 38169 ft 512 kts 73°
2026-05-05 20:26 35.85752 -12.26420 38164 ft 512 kts 73°
2026-05-05 20:26 35.87716 -12.17981 38166 ft 512 kts 73°
2026-05-05 20:27 35.89679 -12.09544 38175 ft 512 kts 73°
2026-05-05 20:27 35.91637 -12.01107 38173 ft 511 kts 73°
2026-05-05 20:28 35.93578 -11.92666 38169 ft 511 kts 73°
2026-05-05 20:28 35.95182 -11.85650 38159 ft 511 kts 73°
2026-05-05 20:29 35.97115 -11.77204 38165 ft 511 kts 73°
2026-05-05 20:29 35.99055 -11.68760 38157 ft 511 kts 73°
2026-05-05 20:30 36.00980 -11.60314 38154 ft 511 kts 73°
2026-05-05 20:30 36.02897 -11.51859 38160 ft 511 kts 74°
2026-05-05 20:31 36.04794 -11.43393 38165 ft 511 kts 74°
2026-05-05 20:31 36.06689 -11.34935 38155 ft 511 kts 74°
2026-05-05 20:32 36.08587 -11.26470 38155 ft 511 kts 74°
2026-05-05 20:32 36.10479 -11.18008 38150 ft 511 kts 74°
2026-05-05 20:33 36.12369 -11.09540 38148 ft 511 kts 74°
2026-05-05 20:33 36.14243 -11.01126 38144 ft 511 kts 74°
2026-05-05 20:34 36.16178 -10.92672 38159 ft 511 kts 73°
2026-05-05 20:34 36.18162 -10.84238 38149 ft 510 kts 73°
2026-05-05 20:35 36.20140 -10.75799 38148 ft 510 kts 73°
2026-05-05 20:35 36.22092 -10.67348 38145 ft 510 kts 73°
2026-05-05 20:36 36.24034 -10.58895 38145 ft 510 kts 73°
2026-05-05 20:36 36.25972 -10.50440 38147 ft 510 kts 73°
2026-05-05 20:37 36.28140 -10.42081 38142 ft 509 kts 69°
2026-05-05 20:37 36.30700 -10.33883 38150 ft 509 kts 67°
2026-05-05 20:37 36.32002 -10.29822 37572 ft 506 kts 67°
2026-05-05 20:38 36.33280 -10.25761 36560 ft 506 kts 68°
2026-05-05 20:38 36.34532 -10.21672 35539 ft 508 kts 69°
2026-05-05 20:38 36.35761 -10.17555 34515 ft 510 kts 69°
2026-05-05 20:38 36.36972 -10.13420 33370 ft 512 kts 69°
2026-05-05 20:39 36.38183 -10.09258 32400 ft 511 kts 69°
2026-05-05 20:39 36.39397 -10.05096 32115 ft 515 kts 69°
2026-05-05 20:39 36.40626 -10.00914 31862 ft 518 kts 69°
2026-05-05 20:39 36.41871 -9.96704 31604 ft 519 kts 69°
2026-05-05 20:40 36.43117 -9.92495 31353 ft 520 kts 69°
2026-05-05 20:40 36.44363 -9.88279 31103 ft 521 kts 69°
2026-05-05 20:40 36.45609 -9.84052 30849 ft 521 kts 69°
2026-05-05 20:40 36.46849 -9.79819 30616 ft 522 kts 69°
2026-05-05 20:41 36.48088 -9.75584 30373 ft 522 kts 68°
2026-05-05 20:41 36.49328 -9.71343 30120 ft 522 kts 68°
2026-05-05 20:41 36.50568 -9.67096 29835 ft 523 kts 68°
2026-05-05 20:41 36.51807 -9.62852 29305 ft 522 kts 69°
2026-05-05 20:42 36.53041 -9.58615 28708 ft 521 kts 69°
2026-05-05 20:42 36.54270 -9.54385 28133 ft 520 kts 69°
2026-05-05 20:42 36.55497 -9.50158 27541 ft 519 kts 69°
2026-05-05 20:42 36.56721 -9.45936 26948 ft 519 kts 69°
2026-05-05 20:43 36.57944 -9.41717 26335 ft 518 kts 69°
2026-05-05 20:43 36.59165 -9.37506 25704 ft 518 kts 69°
2026-05-05 20:43 36.60379 -9.33289 25071 ft 517 kts 69°
2026-05-05 20:43 36.61587 -9.29080 24444 ft 517 kts 69°
2026-05-05 20:44 36.62792 -9.24868 24169 ft 516 kts 69°
2026-05-05 20:44 36.63991 -9.20673 24049 ft 514 kts 69°
2026-05-05 20:44 36.65174 -9.16541 23617 ft 494 kts 69°
2026-05-05 20:44 36.66311 -9.12574 22225 ft 478 kts 69°
2026-05-05 20:45 36.68408 -9.05256 21296 ft 423 kts 69°
2026-05-05 20:45 36.69382 -9.01843 20206 ft 420 kts 69°
2026-05-05 20:45 36.70393 -8.98303 19481 ft 444 kts 69°
2026-05-05 20:46 36.71440 -8.94633 18970 ft 456 kts 69°
2026-05-05 20:46 36.72513 -8.90867 18398 ft 468 kts 69°
2026-05-05 20:46 36.73604 -8.87028 17743 ft 471 kts 69°
2026-05-05 20:46 36.74686 -8.83212 17104 ft 462 kts 69°
2026-05-05 20:47 36.75754 -8.79431 16664 ft 462 kts 69°
2026-05-05 20:47 36.76815 -8.75669 16197 ft 457 kts 69°
2026-05-05 20:47 36.77863 -8.71947 15377 ft 453 kts 69°
2026-05-05 20:47 36.78898 -8.68262 14819 ft 448 kts 69°
2026-05-05 20:48 36.79926 -8.64600 14431 ft 449 kts 70°
2026-05-05 20:48 36.80947 -8.60964 13886 ft 439 kts 69°
2026-05-05 20:48 36.81951 -8.57385 13154 ft 434 kts 69°
2026-05-05 20:48 36.82944 -8.53836 12777 ft 431 kts 70°
2026-05-05 20:49 36.83930 -8.50310 12219 ft 431 kts 69°
2026-05-05 20:49 36.84911 -8.46795 11466 ft 426 kts 70°
2026-05-05 20:49 36.85882 -8.43322 10703 ft 421 kts 69°
2026-05-05 20:49 36.86876 -8.39911 10293 ft 416 kts 69°
2026-05-05 20:50 36.87840 -8.36501 10046 ft 416 kts 69°
2026-05-05 20:50 36.88781 -8.33085 9661 ft 415 kts 71°
2026-05-05 20:50 36.89699 -8.29707 9006 ft 407 kts 70°
2026-05-05 20:50 36.90600 -8.26385 8256 ft 401 kts 69°
2026-05-05 20:51 36.91495 -8.23115 7685 ft 395 kts 69°
2026-05-05 20:51 36.92374 -8.19922 6591 ft 383 kts 69°
2026-05-05 20:51 36.93234 -8.16814 5655 ft 376 kts 69°
2026-05-05 20:51 36.94085 -8.13745 5271 ft 373 kts 69°
2026-05-05 20:52 36.94930 -8.10683 5085 ft 371 kts 70°
2026-05-05 20:52 36.95765 -8.07645 4806 ft 365 kts 70°
2026-05-05 20:52 36.96581 -8.04667 3813 ft 362 kts 67°
2026-05-05 20:52 36.97399 -8.01691 2734 ft 362 kts 68°
2026-05-05 20:53 36.98197 -7.98773 1894 ft 341 kts 68°
2026-05-05 20:53 36.98923 -7.96085 1447 ft 310 kts 67°
2026-05-05 20:53 36.99580 -7.93652 1216 ft 281 kts 67°
2026-05-05 20:53 37.00285 -7.91540 1082 ft 244 kts 51°
2026-05-05 20:54 37.01455 -7.90425 987 ft 194 kts
2026-05-05 20:54 37.02567 -7.90691 994 ft 152 kts 318°
2026-05-05 20:54 37.02857 -7.91836 808 ft 146 kts 253°
2026-05-05 20:54 37.02226 -7.92857 785 ft 149 kts 234°
2026-05-05 20:55 37.01477 -7.93777 472 ft 150 kts 236°
2026-05-05 20:55 37.01150 -7.94864 243 ft 130 kts 283°
2026-05-05 20:55 37.01350 -7.95971 46 ft 130 kts 282°
2026-05-05 20:55 37.01504 -7.97015 22 ft 112 kts 280°
2026-05-05 20:56 37.01596 -7.97680 18 ft 42 kts 282°
2026-05-05 20:56 37.01650 -7.97847 20 ft 12 kts 335°
2026-05-05 20:56 37.01726 -7.97803 20 ft 13 kts 53°
2026-05-05 20:56 37.01751 -7.97741 22 ft 6 kts 66°
2026-05-05 20:57 37.01766 -7.97670 20 ft 7 kts 80°
2026-05-05 20:57 37.01768 -7.97581 20 ft 15 kts 97°
2026-05-05 20:57 37.01752 -7.97467 20 ft 13 kts 100°
2026-05-05 20:57 37.01737 -7.97359 20 ft 12 kts 100°
2026-05-05 20:58 37.01723 -7.97261 20 ft 11 kts 100°
2026-05-05 20:58 37.01710 -7.97167 20 ft 11 kts 99°
2026-05-05 20:58 37.01696 -7.97075 20 ft 11 kts 100°
2026-05-05 20:58 37.01683 -7.96984 20 ft 10 kts 99°
2026-05-05 20:59 37.01722 -7.96906 20 ft 11 kts 20°
2026-05-05 20:59 37.01799 -7.96885 21 ft 7 kts 16°
2026-05-05 20:59 37.01843 -7.96863 20 ft 6 kts 11°
2026-05-05 20:59 37.01885 -7.96854 21 ft 7 kts
2026-05-05 21:00 37.01921 -7.96846 20 ft 1 kts 11°
2026-05-05 21:02 36.78937 -8.68121 14810 ft 447 kts 69°
2026-05-05 21:02 36.79952 -8.64507 14416 ft 448 kts 70°